DELTA 1 DEB, 21602

Orbit data source: Space-Track

DELTA 1 DEB, 21602 is space debris in SSO originally from a launch on Thu, 12 Jun 1975 UTC launched from the Air Force Western Test Range (AFWTR). Debris objects in space refer to the collection of defunct objects orbiting the Earth. Examples of debris include non-operational satellites, rocket bodies, and fragments generated from explosions, collisions, or faulty payload assembly.

Loading next visibility...
Identifier
21602, 1975-052HW
Orbit
SSO
Country
Flag of USUS
Related business
Manufacturer
Unknown
Mission
Spacecraft
Bus & Motor
Unknown
Mass
Unknown
Launch date (UTC)
1975-06-12 (51 years ago)
Launch vehicle
Unknown
Launch site
Air Force Western Test Range (AFWTR)
Object type
Payload
Rocket body
Debris
Shape & HBR
Unknown shape, 0.1 m
Radar Cross Section
Medium (>0.1 m² and <1 m²)

Expand to show TLE details & history
Last TLE update: 2 days ago

TLE from 2 days ago
0 DELTA 1 DEB
1 21602U 75052HW  26167.05288005  .00001569  00000-0  21253-2 0  9996
2 21602  99.6350 198.3188 0079277 166.3922 249.7811 13.59742051703047
Epoch: 2026-06-16T01:16Z
TLE epoch observation values (Epoch: 2026-06-16T01:16:08.836Z)
Latitude
54.27021°
Longitude
-98.62724°
Altitude
1,066.208 km
Speed
7.314 km/s
True Right ascension
12h 18m 57s
True Declination
54° 06' 50"
Sunlit
Object was in daylight at epoch
Visualization orbit readout
Latitude
Unknown
Longitude
Unknown
Altitude
Unknown
Speed
Unknown
Apparent Right ascension
Unknown
Apparent Declination
Unknown
Sunlit
N/A
Visualization observer readout
Local Sidereal Time
21:49:32
Azimuth
Unknown
Elevation
Unknown
Doppler factor
Unknown
Orbital elements
Apogee altitude
1,092.675 km
Perigee altitude
975.154 km
Semi-major axis
7,412.051 km
Eccentricity
0.00793
Inclination
99.635°
RAAN
198.3188°
Arg. of periapsis
166.3922°
True anomaly
248.93157°
Mean anomaly
249.7811°
Eccentric anomaly
249.35604°
Mean motion
3.40123 °/min
Orbital period
105.84 mins
BSTAR
0.0021253
Loading maneuver chart data...
Computing Atmospheric mass density...
Loading historical data...
Loading historical data...
Loading historical data...
Loading historical data...
Loading historical data...
Loading historical data...
Loading historical data...

Documentation

Showing up to 5 results
|